EFIV Weather Reports


Display with metric or nautical units.
time (UTC)temp
F
wind
direction
speed
MPH
gust
MPH
rain 1hr
in
rain 24hr
in
rain mn
in
humidity
%
barometer
mb
20260902020439 55 46 7.0 9.0 0.00 0.00 0.00 98 1002.6
20260902014441 56 59 7.0 9.0 0.00 0.00 0.00 98 1002.8
20260902012442 56 58 8.0 11.0 0.00 0.00 0.00 98 1002.8
20260902010439 56 56 9.0 12.0 0.00 0.00 0.00 98 1002.9
20260902004441 56 51 11.0 13.0 0.00 0.00 0.00 98 1002.9
20260902002441 56 37 10.0 12.0 0.00 0.00 0.00 99 1002.9
20260902000440 56 34 9.0 11.0 0.00 0.00 0.00 99 1003.0
20260901234440 56 42 7.0 9.0 0.00 0.00 0.00 99 1003.1
20260901232439 56 43 8.0 10.0 0.00 0.00 0.00 99 1003.1
20260901230441 56 38 6.0 8.0 0.00 0.00 0.00 99 1003.2
20260901224440 56 37 7.0 9.0 0.00 0.00 0.00 99 1003.2
20260901222440 56 29 5.0 7.0 0.00 0.00 0.00 99 1003.2
20260901220439 56 37 5.0 6.0 0.00 0.00 0.00 99 1003.3
20260901214440 56 50 6.0 8.0 0.00 0.00 0.00 99 1003.4
20260901212440 56 48 6.0 7.0 0.00 0.00 0.00 99 1003.5
20260901210438 56 42 4.0 5.0 0.00 0.00 0.00 98 1003.7
20260901204438 56 55 5.0 8.0 0.00 0.00 0.00 97 1003.8
20260901202439 56 66 4.0 5.0 0.00 0.00 0.00 96 1003.8
20260901200438 57 65 5.0 6.0 0.00 0.00 0.00 96 1003.9
20260901194436 57 79 3.0 5.0 0.00 0.00 0.00 95 1003.9
20260901192437 58 50 6.0 8.0 0.00 0.00 0.00 93 1003.9
20260901190438 58 44 6.0 7.0 0.00 0.00 0.00 93 1003.9
20260901184438 58 59 6.0 6.0 0.00 0.00 0.00 92 1003.9
20260901182437 58 61 5.0 7.0 0.00 0.00 0.00 92 1004.0
20260901180437 58 57 5.0 6.0 0.00 0.00 0.00 91 1004.1
20260901174437 59 54 7.0 8.0 0.00 0.00 0.00 90 1004.1
20260901164108 60 52 5.0 6.0 0.00 0.00 0.00 87 1004.1
20260901162438 60 44 6.0 8.0 0.00 0.00 0.00 87 1004.1
20260901160437 60 36 7.0 9.0 0.00 0.00 0.00 85 1004.0
20260901154435 60 42 7.0 9.0 0.00 0.00 0.00 85 1004.1
20260901144437 61 48 10.0 12.0 0.00 0.00 0.00 83 1004.1
20260901142436 61 42 10.0 13.0 0.00 0.00 0.00 83 1004.2
20260901140436 61 51 10.0 13.0 0.00 0.00 0.00 83 1004.3
20260901134437 60 40 8.0 10.0 0.00 0.00 0.00 85 1004.4
20260901132437 60 50 9.0 12.0 0.00 0.00 0.00 84 1004.4
20260901130435 60 40 10.0 13.0 0.00 0.00 0.00 85 1004.5
20260901124437 60 37 9.0 12.0 0.00 0.00 0.00 84 1004.6
20260901122437 59 32 8.0 11.0 0.00 0.00 0.00 85 1004.7
20260901120436 59 21 9.0 12.0 0.00 0.00 0.00 85 1004.7
20260901114436 59 43 9.0 11.0 0.00 0.00 0.00 86 1004.9
20260901112435 58 35 8.0 10.0 0.00 0.00 0.00 87 1005.0
20260901110436 59 38 9.0 11.0 0.00 0.00 0.00 85 1005.0
20260901104435 59 54 9.0 12.0 0.00 0.00 0.00 86 1005.0
20260901102436 58 46 9.0 11.0 0.00 0.00 0.00 87 1005.1
20260901094437 57 47 7.0 9.0 0.00 0.00 0.00 88 1005.2
20260901092107 57 46 8.0 11.0 0.00 0.00 0.00 87 1005.2
20260901090435 56 47 9.0 12.0 0.00 0.00 0.00 87 1005.2
20260901084435 57 49 9.0 11.0 0.00 0.00 0.00 87 1005.1
20260901082435 56 58 9.0 10.0 0.00 0.00 0.00 87 1005.1
20260901080436 56 50 7.0 10.0 0.00 0.00 0.00 89 1005.2
20260901074434 55 43 8.0 10.0 0.00 0.00 0.00 90 1005.2
20260901072435 54 32 6.0 8.0 0.00 0.00 0.00 91 1005.3
20260901070434 54 42 7.0 10.0 0.00 0.00 0.00 93 1005.3
20260901064435 54 45 7.0 9.0 0.00 0.00 0.00 95 1005.4
20260901062434 53 30 7.0 9.0 0.00 0.00 0.00 97 1005.4
20260901060434 53 40 7.0 9.0 0.00 0.00 0.00 98 1005.4
20260901054434 53 37 9.0 11.0 0.00 0.00 0.00 96 1005.4
20260901044106 54 41 9.0 12.0 0.00 0.00 0.00 95 1005.6
20260901042434 54 50 8.0 11.0 0.00 0.00 0.00 94 1005.6
20260901040436 53 43 9.0 12.0 0.00 0.00 0.00 96 1005.7
20260901034435 54 52 9.0 13.0 0.00 0.00 0.00 95 1005.7
20260901032435 54 56 9.0 11.0 0.00 0.00 0.00 93 1005.7
20260901030434 54 40 9.0 11.0 0.00 0.00 0.00 94 1005.7
20260901024433 54 55 5.0 7.0 0.00 0.00 0.00 94 1005.9
20260901022433 54 45 6.0 8.0 0.00 0.00 0.00 94 1005.9